Tracking 31027 objects as of 19-Jul-2025
HD Live streaming from Space Station
objects crossing your sky now

ONEWEB-0168

Track ONEWEB-0168 now!
10-day predictions
ONEWEB-0168 is classified as:


NORAD ID: 48068
Int'l Code: 2021-025AC
Perigee: 1,215.5 km
Apogee: 1,218.3 km
Inclination: 87.9 °
Period: 109.6 minutes
Semi major axis: 7587 km
RCS: Unknown
Launch date: March 25, 2021
Source: United States (US)
Launch site: VOSTOCHNY COSMODROME (VOSTO)
Your satellite tracking list
FLOCK 3K 7
Track 1 satellite(s)




NASA's NSSDC Master Catalog

Two Line Element Set (TLE):
1 48068U 21025AC  25199.48398445 -.00000103  00000-0 -31596-3 0  9990
2 48068  87.8956  26.5042 0001815  87.1714 272.9623 13.13471628209753
Source of the keplerian elements: AFSPC